Home > Weather > Ulyanovsk > Past weeks

Flag for Russia Weather for the Past 2 Weeks in Ulyanovsk, Russia

Now
48 °F

Sprinkles. Mostly cloudy.


Feels Like: 46 °F
Forecast: 46 / 54 °F
Wind: 6 mph from Northeast

Location: Ulyanovsk

Current Time: May 2, 2016 at 2:06:11 AM

Latest Report: May 2, 2016 at 1:00 AM


Visibility: 3 mi

Pressure: 30.04 "Hg

Humidity: 94%

Dew Point: 46 °F

Location of UlyanovskLocation

Historic Weather in Ulyanovsk — Graph

°F

Ulyanovsk Temperature Yesterday

Maximum temperature yesterday: 52 °F (at 3:00 PM)
Minimum temperature yesterday: 46 °F (at 8:00 AM)
Average temperature yesterday: 49 °F

High & Low Weather Summary for the Past Weeks

 TemperatureHumidityPressure
High72 °F (Apr 26, 3:00 PM)100% (Apr 19, 1:00 AM)30.30 "Hg (Apr 19, 1:00 AM)
Low34 °F (Apr 19, 2:00 AM)24% (Apr 28, 4:00 PM)29.45 "Hg (Apr 21, 9:00 PM)
Average50 °F63%29.94 "Hg
* Reported Midnight between Apr 16 and Apr 17 — Midnight between May 1 and May 2, Ulyanovsk, Weather by CustomWeather, © 2016

Note: Actual official high and low records may vary slightly from our data, if they occured in-between our weather recording intervals... More about our weather records

Advertising

Ulyanovsk Weather History for the Previous 24 Hours

Scroll right to see more
 ConditionsComfort  
Time TempWeatherWind HumidityBarometerVisibility
12:00 AM
Mon, May 2
48 °FSprinkles. Mostly cloudy.8 mph94%30.04 "Hg3 mi
11:00 PM
Sun, May 1
48 °FSprinkles. Mostly cloudy.8 mph94%30.04 "Hg3 mi
10:00 PM48 °FSprinkles. Mostly cloudy.10 mph94%30.04 "Hg3 mi
9:00 PM50 °FSprinkles. Mostly cloudy.10 mph94%30.04 "Hg3 mi
8:00 PM50 °FSprinkles. Mostly cloudy.10 mph94%30.04 "Hg3 mi
7:00 PM50 °FSprinkles. Mostly cloudy.10 mph94%30.04 "Hg3 mi
6:00 PM50 °FSprinkles. Overcast.13 mph94%30.04 "Hg5 mi
5:00 PM50 °FSprinkles. Mostly cloudy.13 mph88%30.04 "Hg3 mi
4:00 PM50 °FSprinkles. Mostly cloudy.17 mph94%30.04 "Hg5 mi
3:00 PM52 °FSprinkles. Mostly cloudy.13 mph88%30.01 "Hg5 mi
2:00 PM50 °FSprinkles. Mostly cloudy.15 mph94%30.04 "Hg5 mi
1:00 PM50 °FSprinkles. Mostly cloudy.15 mph88%30.04 "Hg3 mi
12:00 PM48 °FSprinkles. Mostly cloudy.15 mph94%30.04 "Hg3 mi
11:00 AM50 °FSprinkles. Overcast.17 mph82%30.04 "Hg5 mi
10:00 AM50 °FSprinkles. Overcast.17 mph82%30.04 "Hg5 mi
9:00 AM48 °FSprinkles. Partly sunny.17 mph87%30.04 "Hg5 mi
8:00 AM46 °FSprinkles. Overcast.17 mph87%30.04 "Hg5 mi
7:00 AM48 °FSprinkles. Overcast.15 mph82%30.04 "Hg5 mi
6:00 AM48 °FScattered clouds.8 mph71%30.04 "Hg5 mi
5:00 AM48 °FPassing clouds.8 mph71%30.04 "Hg5 mi
4:00 AM48 °FPassing clouds.3 mph66%30.07 "Hg5 mi
3:00 AM48 °FPassing clouds.6 mph66%30.07 "Hg5 mi
2:00 AM48 °FPassing clouds.6 mph66%30.07 "Hg5 mi
Weather by CustomWeather, © 2016

See weather overviewHow to use our weather pages